Location: Unspecified
(43.4000°N, 0.0000°E)
Time: 13:34:41
(UTC+00:00)

Tiangong 2 - Visible Passes

Search period start: 24 May 2019 00:00
Search period end: 03 June 2019 00:00
Orbit: 379 x 387 km, 42.8° (Epoch: 24 May)

Date Brightness Start Highest point End Pass type
(mag) Time Alt. Az. Time Alt. Az. Time Alt. Az.
24 May 1.0 20:09:51 10° WSW 20:12:59 74° S 20:16:06 10° E visible
24 May 1.4 21:46:31 10° W 21:49:05 53° WSW 21:49:05 53° WSW visible
25 May 0.9 20:46:29 10° W 20:49:37 80° S 20:51:43 19° E visible
25 May 3.6 22:23:15 10° W 22:23:53 14° W 22:23:53 14° W visible
26 May 1.2 21:23:09 10° W 21:26:14 52° SSW 21:26:27 50° S visible
27 May 1.0 20:23:06 10° W 20:26:13 69° S 20:29:00 12° ESE visible
27 May 3.3 22:00:03 10° W 22:01:11 17° WSW 22:01:11 17° WSW visible
28 May 1.8 20:59:49 10° W 21:02:44 36° SSW 21:03:43 28° SSE visible
29 May 3.3 21:37:06 10° WSW 21:38:25 15° SW 21:38:25 15° SW visible
30 May 2.6 20:36:34 10° W 20:39:11 24° SSW 20:40:58 15° SSE visible
01 Jun 3.3 20:13:34 10° WSW 20:15:33 16° SSW 20:17:33 10° S visible
